sat.trackr.live / text

‹ back to catalog

STARLINK-34471

NORAD 64739 · 2025-144R

PAYLOAD ACTIVE UNKNOWN

§ Identity

Operator
Country
US
Launch date
2025-07-02
Launch site
AFETR
Launch vehicle
Mass (kg)
RCS (m²)

Purposes: comms

External: N2YO · Heavens-Above · Gunter

§ Orbital elements

Epoch: 2026-05-25T03:08:37.247424Z

Period
94.10 min
Inclination
53.1582°
Eccentricity
0.0001217
Mean motion
15.30206098 rev/d
Perigee alt
474.4 km
Apogee alt
476.0 km
Semi-major
6,853.3 km
B*
5.5081e-4
RAAN
186.1003°
Arg perigee
83.7337°
Mean anomaly
276.3802°
Rev number
5,135

§ Raw data

STARLINK-344711 64739U 25144R   26145.13098666  .00015992  00000+0  55081-3 0  99992 64739  53.1582 186.1003 0001217  83.7337 276.3802 15.30206098 51352

JSON: /api/v1/satellites/64739 · /tle

For live sub-satellite position, see the globe view (requires WebGL).

§ Visibility from observer

Set your observer location to see the next 7 days of passes ≥ 10°. The values pass through the URL so the page stays shareable.

No JS? Fill the form by hand. The geolocation button needs JavaScript.